{"data":{"norad_id":53546,"intl_designator":"2022-101V","name":"STARLINK-4477","alt_names":[],"object_type":"PAYLOAD","status":"ACTIVE","operator":null,"country":"US","launch_date":"2022-08-19","launch_site_code":"AFETR","launch_vehicle":null,"mission":null,"orbit_class":"UNKNOWN","rcs_meters":null,"size_class":null,"mass_kg":null,"dimensions":null,"purposes":["comms"],"wikipedia_slug":null,"has_3d_model":false,"image_url":null,"decayed_at":null,"tle_current":{"epoch":"2026-09-20T05:22:08.673600Z","epoch_age_seconds":102160,"freshness":"FRESH","line1":"1 53546U 22101V   26263.22371150 -.00000077  00000+0  88777-5 0  9995","line2":"2 53546  53.1603 244.6750 0001503  94.1589 265.9585 15.34387395226037","mean_motion":15.34387395,"eccentricity":0.0001503,"inclination_deg":53.1603,"raan_deg":244.675,"arg_perigee_deg":94.1589,"mean_anomaly_deg":265.9585,"bstar":8.8777e-6,"rev_number":22603,"period_min":93.848529041129,"perigee_km":461.71252126088,"apogee_km":463.76888909905,"semimajor_km":6840.87770518,"source":"CELESTRAK","updated_at":"2026-09-21T09:00:32.923253Z"}}}